User: anonymous   Login
Location: LDNL
(36.4545°S, 141.6685°E)
Time: 18:46:24
(UTC+10:00)
Language:

PSAT 2 - Orbit

View from above orbital plane
View from above orbital plane
View from above satellite
View from above satellite

Ground track
Ground track

The orbit data is extracted from the following two-line orbital elements,

1 44354U 19036R   22136.07807123  .00078773 -49971-5  76563-3 0  9999
2 44354  28.5284  42.0901 0246457 326.9062  31.6330 15.35066903159686
Epoch (UTC): 16 May 2022 01:52:25
Eccentricity: 0.0246457
inclination: 28.5284°
perigee height: 292 km
apogee height: 629 km
right ascension of ascending node: 42.0901°
argument of perigee: 326.9062°
revolutions per day: 15.35066903
mean anomaly at epoch: 31.6330°
orbit number at epoch: 15968

The dashed part of the orbit path shows where the satellite is in the earth's shadow,  

DLR